Stündliche Wetter Aberlour

Heute, 25 Juni, Freitag

Zeit Temperatur Niederschläge Wind Luftdruck Luftfeuchtigkeit
00:00 +7°C° 0.1 mm 6 m/S 749 mmHg 95%
01:00 +6°C° 0.1 mm 7 m/S 749 mmHg 95%
02:00 +6°C° 0.1 mm 7 m/S 749 mmHg 95%
03:00 +6°C° 0.1 mm 7 m/S 749 mmHg 95%
04:00 +6°C° 0.2 mm 7 m/S 749 mmHg 94%
05:00 +6°C° 0.2 mm 7 m/S 749 mmHg 93%
06:00 +6°C° 0.2 mm 7 m/S 749 mmHg 93%
07:00 +6°C° 0.3 mm 7 m/S 749 mmHg 93%
08:00 +6°C° 0.3 mm 7 m/S 749 mmHg 93%
09:00 +7°C° 0.3 mm 6 m/S 749 mmHg 93%
10:00 +8°C° 0.7 mm 6 m/S 749 mmHg 94%
11:00 +8°C° 0.7 mm 6 m/S 749 mmHg 94%
12:00 +8°C° 0.7 mm 6 m/S 749 mmHg 95%
13:00 +8°C° 0.4 mm 6 m/S 749 mmHg 95%
14:00 +8°C° 0.4 mm 6 m/S 750 mmHg 95%
15:00 +8°C° 0.4 mm 6 m/S 750 mmHg 95%
16:00 +8°C° 0.2 mm 6 m/S 750 mmHg 95%
17:00 +8°C° 0.2 mm 6 m/S 750 mmHg 95%
18:00 +8°C° 0.2 mm 6 m/S 750 mmHg 95%
19:00 +8°C° 0.1 mm 6 m/S 750 mmHg 95%
20:00 +8°C° 0.1 mm 5 m/S 751 mmHg 96%
21:00 +8°C° 0.1 mm 5 m/S 751 mmHg 96%
22:00 +8°C° 0.1 mm 4 m/S 751 mmHg 96%
23:00 +8°C° 0.1 mm 4 m/S 751 mmHg 96%

Morgen, 26 Juni, Samstag

Zeit Temperatur Niederschläge Wind Luftdruck Luftfeuchtigkeit
00:00 +8°C° 0.1 mm 4 m/S 751 mmHg 97%
01:00 +9°C° 0 mm 3 m/S 751 mmHg 97%
02:00 +8°C° 0 mm 3 m/S 751 mmHg 97%
03:00 +8°C° 0 mm 3 m/S 751 mmHg 97%
04:00 +8°C° 0 mm 3 m/S 751 mmHg 96%
05:00 +9°C° 0 mm 2 m/S 751 mmHg 96%
06:00 +9°C° 0 mm 2 m/S 752 mmHg 95%
07:00 +9°C° 0 mm 2 m/S 752 mmHg 93%
08:00 +9°C° 0 mm 2 m/S 752 mmHg 91%
09:00 +10°C° 0 mm 2 m/S 752 mmHg 89%
10:00 +12°C° 0 mm 2 m/S 752 mmHg 82%
11:00 +13°C° 0 mm 1 m/S 751 mmHg 75%
12:00 +15°C° 0 mm 1 m/S 751 mmHg 68%
13:00 +16°C° 0 mm 1 m/S 751 mmHg 65%
14:00 +17°C° 0 mm 2 m/S 751 mmHg 61%
15:00 +18°C° 0 mm 2 m/S 750 mmHg 58%
16:00 +17°C° 0 mm 2 m/S 750 mmHg 61%
17:00 +16°C° 0 mm 2 m/S 750 mmHg 63%
18:00 +16°C° 0 mm 2 m/S 750 mmHg 66%
19:00 +14°C° 0 mm 2 m/S 750 mmHg 72%
20:00 +13°C° 0 mm 1 m/S 750 mmHg 79%
21:00 +11°C° 0 mm 1 m/S 751 mmHg 85%
22:00 +11°C° 0 mm 1 m/S 750 mmHg 86%
23:00 +11°C° 0 mm 1 m/S 750 mmHg 87%

übermorgen, 27 Juni, Sonntag

Zeit Temperatur Niederschläge Wind Luftdruck Luftfeuchtigkeit
00:00 +11°C° 0 mm 1 m/S 750 mmHg 88%
01:00 +11°C° 0 mm 1 m/S 750 mmHg 87%
02:00 +11°C° 0 mm 1 m/S 749 mmHg 87%
03:00 +11°C° 0 mm 1 m/S 749 mmHg 86%
04:00 +12°C° 0 mm 1 m/S 749 mmHg 84%
05:00 +13°C° 0 mm 1 m/S 749 mmHg 82%
06:00 +13°C° 0 mm 1 m/S 749 mmHg 81%
07:00 +15°C° 0 mm 1 m/S 749 mmHg 76%
08:00 +16°C° 0 mm 1 m/S 749 mmHg 71%
09:00 +17°C° 0 mm 0 m/S 749 mmHg 66%
10:00 +20°C° 0 mm 1 m/S 748 mmHg 62%
11:00 +21°C° 0 mm 1 m/S 748 mmHg 57%
12:00 +22°C° 0 mm 1 m/S 747 mmHg 53%
13:00 +23°C° 0 mm 2 m/S 747 mmHg 53%
14:00 +23°C° 0 mm 2 m/S 747 mmHg 53%
15:00 +22°C° 0 mm 3 m/S 747 mmHg 53%
16:00 +21°C° 0 mm 2 m/S 747 mmHg 59%
17:00 +20°C° 0 mm 2 m/S 747 mmHg 65%
18:00 +19°C° 0 mm 2 m/S 747 mmHg 70%
19:00 +19°C° 0 mm 1 m/S 747 mmHg 76%
20:00 +16°C° 0 mm 1 m/S 747 mmHg 81%
21:00 +15°C° 0 mm 1 m/S 747 mmHg 87%
22:00 +15°C° 0 mm 1 m/S 747 mmHg 86%
23:00 +14°C° 0 mm 1 m/S 747 mmHg 86%

28 Juni, Montag

Zeit Temperatur Niederschläge Wind Luftdruck Luftfeuchtigkeit
00:00 +13°C° 0 mm 1 m/S 747 mmHg 85%
01:00 +13°C° 0 mm 1 m/S 747 mmHg 85%
02:00 +13°C° 0 mm 1 m/S 747 mmHg 85%
03:00 +13°C° 0 mm 1 m/S 747 mmHg 85%
04:00 +14°C° 0 mm 1 m/S 747 mmHg 81%
05:00 +15°C° 0 mm 1 m/S 747 mmHg 77%
06:00 +15°C° 0 mm 1 m/S 747 mmHg 73%
07:00 +18°C° 0 mm 1 m/S 747 mmHg 66%
08:00 +20°C° 0 mm 1 m/S 747 mmHg 58%
09:00 +22°C° 0 mm 1 m/S 747 mmHg 50%
10:00 +23°C° 0 mm 1 m/S 747 mmHg 49%
11:00 +24°C° 0 mm 1 m/S 747 mmHg 48%
12:00 +24°C° 0 mm 1 m/S 747 mmHg 47%
13:00 +25°C° 0 mm 2 m/S 747 mmHg 48%
14:00 +25°C° 0 mm 2 m/S 747 mmHg 50%
15:00 +25°C° 0 mm 2 m/S 747 mmHg 51%
16:00 +24°C° 0.1 mm 2 m/S 747 mmHg 56%
17:00 +23°C° 0.1 mm 2 m/S 747 mmHg 62%
18:00 +21°C° 0.1 mm 2 m/S 747 mmHg 67%
19:00 +19°C° 0 mm 2 m/S 747 mmHg 74%
20:00 +17°C° 0 mm 2 m/S 748 mmHg 80%
21:00 +15°C° 0 mm 1 m/S 748 mmHg 87%
22:00 +14°C° 0 mm 1 m/S 748 mmHg 87%
23:00 +13°C° 0 mm 1 m/S 748 mmHg 87%

29 Juni, Dienstag

Zeit Temperatur Niederschläge Wind Luftdruck Luftfeuchtigkeit
00:00 +12°C° 0 mm 1 m/S 748 mmHg 87%
01:00 +12°C° 0 mm 1 m/S 748 mmHg 87%
02:00 +12°C° 0 mm 1 m/S 748 mmHg 88%
03:00 +12°C° 0 mm 1 m/S 748 mmHg 88%
04:00 +13°C° 0 mm 1 m/S 748 mmHg 85%
05:00 +14°C° 0 mm 1 m/S 749 mmHg 82%
06:00 +15°C° 0 mm 1 m/S 749 mmHg 79%
07:00 +18°C° 0 mm 1 m/S 749 mmHg 70%
08:00 +19°C° 0 mm 1 m/S 749 mmHg 62%
09:00 +20°C° 0 mm 2 m/S 749 mmHg 53%
10:00 +21°C° 0 mm 2 m/S 749 mmHg 49%
11:00 +23°C° 0 mm 2 m/S 749 mmHg 45%
12:00 +22°C° 0 mm 3 m/S 749 mmHg 41%
13:00 +22°C° 0 mm 3 m/S 750 mmHg 42%
14:00 +22°C° 0 mm 3 m/S 750 mmHg 42%
15:00 +22°C° 0 mm 3 m/S 750 mmHg 42%
16:00 +21°C° 0 mm 3 m/S 750 mmHg 48%
17:00 +20°C° 0 mm 3 m/S 750 mmHg 53%
18:00 +19°C° 0 mm 2 m/S 750 mmHg 58%
19:00 +18°C° 0 mm 2 m/S 750 mmHg 66%
20:00 +16°C° 0 mm 1 m/S 751 mmHg 74%
21:00 +14°C° 0 mm 1 m/S 751 mmHg 82%
22:00 +13°C° 0 mm 1 m/S 751 mmHg 82%
23:00 +13°C° 0 mm 1 m/S 751 mmHg 83%

30 Juni, Mittwoch

Zeit Temperatur Niederschläge Wind Luftdruck Luftfeuchtigkeit
00:00 +13°C° 0 mm 1 m/S 751 mmHg 83%
01:00 +13°C° 0 mm 1 m/S 751 mmHg 81%
02:00 +13°C° 0 mm 1 m/S 751 mmHg 80%
03:00 +13°C° 0 mm 1 m/S 751 mmHg 78%
04:00 +14°C° 0 mm 1 m/S 751 mmHg 74%
05:00 +15°C° 0 mm 2 m/S 751 mmHg 70%
06:00 +16°C° 0 mm 2 m/S 751 mmHg 65%
07:00 +18°C° 0 mm 2 m/S 751 mmHg 63%
08:00 +19°C° 0 mm 2 m/S 752 mmHg 60%
09:00 +20°C° 0 mm 2 m/S 752 mmHg 58%
10:00 +21°C° 0 mm 3 m/S 752 mmHg 55%
11:00 +22°C° 0 mm 3 m/S 752 mmHg 53%
12:00 +24°C° 0 mm 3 m/S 752 mmHg 51%
13:00 +22°C° 0 mm 3 m/S 752 mmHg 51%
14:00 +22°C° 0 mm 3 m/S 752 mmHg 51%
15:00 +22°C° 0 mm 4 m/S 752 mmHg 51%
16:00 +21°C° 0 mm 3 m/S 752 mmHg 54%
17:00 +20°C° 0 mm 3 m/S 752 mmHg 57%
18:00 +19°C° 0 mm 3 m/S 752 mmHg 60%
19:00 +17°C° 0 mm 3 m/S 752 mmHg 67%
20:00 +15°C° 0 mm 2 m/S 752 mmHg 75%
21:00 +14°C° 0 mm 1 m/S 752 mmHg 83%
22:00 +13°C° 0 mm 1 m/S 752 mmHg 84%
23:00 +12°C° 0 mm 1 m/S 752 mmHg 85%
Mehr zeigen

Wir brauchen deine Erlaubnis

Meteoprog und unser Service Anbieter werden persönliche Daten aufbewahren, so wie Cookies, Geräte Bezeichnung oder ähnliche Technologien von deinem Gerät und Prozess, so wie Persönliche Daten Inhalte und Werbungen, genauso wie social Media und den Verkehr zu analysieren.

  • Aufbewahrung und/oder Zugang zu deiner Geräte Informationen.

    Cookies, Geräte Bezeichnung oder andere Informationen, können aufbewahrt oder Zugang zu deinem Gerät erhalten, für den Grund, der oben angegeben wird.

  • Personalisierte Werbung und Inhalte, Messungen, Einblick in das Publikum und Produkt Entwicklung.

    Werbungen und Inhalte können personalisiert werden, basierend auf ein Profil. Mehr Daten können besser personalisierte Werbungen und Inhalte hinzufügen. Werbung und Inhalte können gezeigt und gemessen werden. Einblicke über das Publikum, welche die Werbung gesehen haben und den Inhalt, können abgeleitet werden. So wie Daten können genutzt werden, um es zu verbessern oder die Benutzer Erfahrung zu verbessern das System und die Software.

Wenn du “Ich stimme zu” klickst, erlaubst du uns, die Cookies zu benutzen die Geräte Bezeichnung, den Web oder ähnliche Technologien zu benutzen. Deine Settings, können in deinem Gerät bei deinem Browser geändert werden.

Für den bestimmten Zweck, berechtigten Interessen beruhen darauf, mehr als auf den Inhalt. Du kannst mehr darüber in unseren Privaten und Cookie Politik lesen.